Regional Weather Roundup
Issued by NWS Wakefield, VA

Home | Current Version | Previous Version | Text Only | Print | Product List | Glossary On
Versions: 1 2 3 4 5 6 7 8 9 10 11 12 13 14 15 16 17 18 19 20 21 22 23 24 25 26 27 28 29 30 31 32 33 34 35 36 37 38 39 40 41 42 43 44 45 46 47 48 49 50
000
ASUS41 KAKQ 301910
RWRAKQ

REGIONAL WEATHER ROUNDUP
NATIONAL WEATHER SERVICE WAKEFIELD VA
300 PM EDT WED JUL 30 2014

Note: "fair" indicates few or no clouds below 12,000 feet with no
significant weather and/or obstructions to visibility. * = Denotes
station may not report precipitation (e.g., rain,snow,etc.),
thunder or fog.

VAZ042-051-052>054-056-302000-
NORTHERN VIRGINIA

CITY           SKY/WX    TMP DP  RH WIND       PRES   REMARKS
WASH NATIONAL  MOSUNNY   79  52  38 S10       30.06F
DULLES         MOSUNNY   77  50  38 S10G17    30.06F
FORT BELVOIR   SUNNY     78  53  42 VRB5      30.07S
QUANTICO       MOSUNNY   76  53  44 SE6       30.07F
FREDERICKSBRG* MOSUNNY   80  54  40 W6        30.06S
STAFFORD*      PTSUNNY   78  53  41 W5        30.11S
WARRENTON      MOSUNNY   79  59  51 CALM      30.07S
CULPEPER*      SUNNY    N/A N/A N/A W3        30.07S
MANASSAS*      MOSUNNY   77  52  41 S5        30.07S
LEESBURG*      MOSUNNY   77  54  44 SW6       30.07S
WINCHESTER     MOSUNNY   77  52  41 W3        30.06S
$$

VAZ048-049-060>072-079>083-302000-
CENTRAL AND SOUTH CENTRAL VIRGINIA...AND NORTH CENTRAL NORTH CAROLINA

CITY           SKY/WX    TMP DP  RH WIND       PRES   REMARKS
RICHMOND       MOSUNNY   80  51  36 NW8       30.07F
CHESTERFIELD*  MOCLDY    77  52  41 SW8       30.09F
HANOVER        MOSUNNY   80  52  37 SW9       30.08F
TAPPAHANNOCK*  PTSUNNY   78  47  33 NW3       30.07F
CHARLOTTSVILLE MOSUNNY   77  53  43 VRB6      30.07F
ORANGE*        SUNNY     79  52  38 SW5       30.09S
LOUISA*        MOSUNNY   79  55  44 CALM      30.07S
FARMVILLE*     MOSUNNY   81  52  36 S8        30.06S
SOUTH HILL*    CLOUDY    77  63  61 W3        30.13F
ROANOKE RAPIDS NOT AVBL
RALEIGH        PTSUNNY   78  62  57 SE8       30.06F
$$

VAZ088>098-302000-
SOUTHEAST VIRGINIA

CITY           SKY/WX    TMP DP  RH WIND       PRES   REMARKS
NORFOLK        PTSUNNY   77  53  43 NE5       30.07F
VIRGINIA BEACH PTSUNNY   77  55  46 E7        30.06S
NORFOLK NAVAL  MOSUNNY   79  55  43 NE5       30.08F
WEST POINT*    SUNNY     81  53  38 W5        30.08F
NEWPORT NEWS   SUNNY     82  56  40 VRB3      30.07S
LANGLEY AFB    DRIZZLE   81  57  44 E6G23     30.06S
FORT EUSTIS    SUNNY     78  57  47 NW5       30.05F
WILLIAMSBURG*  SUNNY     84  59  42 CALM      30.07F
FRANKLIN*      SUNNY     79  57  47 CALM      30.07S
WAKEFIELD      MOSUNNY   80  57  45 CALM      30.07F
$$

VAZ020-022-025-037-045-302000-
WESTERN AND SOUTHWEST VIRGINIA

CITY           SKY/WX    TMP DP  RH WIND       PRES   REMARKS
STAUNTON*      PTSUNNY   74  49  41 CALM      30.11S
HOT SPRINGS VA CLOUDY    61  47  61 S3        30.19S
LYNCHBURG      MOSUNNY   76  52  43 VRB5      30.10F
DANVILLE       MOSUNNY   78  59  51 E6        30.08F
MARTINSVILLE   PTSUNNY   83  52  34 N3        30.11S
ROANOKE        PTSUNNY   76  51  41 S6        30.10F
BLACKSBURG     MOSUNNY   75  54  46 W5          N/A
DUBLIN*        PTSUNNY   74  51  44 CALM      30.13F
MARION*        MOSUNNY   74  49  41 CALM      30.16F
HILLSVILLE*    MOSUNNY   72  44  36 W7        30.14F
RICHLANDS*     MOCLDY    73  53  49 NE5       30.16S
WISE*          PTSUNNY   70  48  46 CALM      30.17S
ABINGDON*      SUNNY     75  50  41 CALM      30.14S
$$

MDZ021>025-VAZ099-100-302000-
SOUTHERN MARYLAND AND THE DELMARVA PENINSULA

CITY           SKY/WX    TMP DP  RH WIND       PRES   REMARKS
PATUXENT RIVER MOSUNNY   79  46  31 VRB7      30.06S
BAY BRIDGE APT   N/A     77  48  36 SW3       30.06S
LEONARDTOWN    MOSUNNY   77  46  33 W10       30.08S
DOVER          NOT AVBL
GEORGETOWN       N/A     77  51  40 MISG      30.06S
EASTON         MOSUNNY   77  52  41 W7        30.10F
CAMBRIDGE      SUNNY     77  46  33 SW6       30.06S
SALISBURY      MOSUNNY   81  51  35 W8        30.05S
OCEAN CITY     MOSUNNY   75  58  55 SE9       30.06S
WALLOPS ISLAND SUNNY     81  52  36 NW9       30.06F
ACCOMACK*        N/A     77  52  41 NW6       30.07S
$$

NCZ012>017-030>032-302000-
EASTERN NORTH CAROLINA

CITY           SKY/WX    TMP DP  RH WIND       PRES   REMARKS
ELIZABETH CITY MOSUNNY   80  60  50 N3        30.06F
AHOSKIE*       SUNNY     78  58  49 CALM      30.07F
EDENTON*       SUNNY     80  62  55 CALM      30.06F
CURRITUCK*     SUNNY     82  56  39 NE7       30.07S
KILL DEVIL HLS SUNNY     79  58  49 NE6       30.06F
MANTEO         NOT AVBL
CAPE HATTERAS  SUNNY     83  62  49 NE8       30.06S
GOLDSBORO      SUNNY     83  66  55 VRB5      30.03F
WASHINGTON     SUNNY     81  61  51 NE3       30.06F
GREENVILLE     CLOUDY    82  61  47 CALM      30.07F
NEW BERN       SUNNY     85  57  38 CALM      30.06F
WILMINGTON     SUNNY     84  65  52 E12       30.04F
$$

VAZ048-302000-
ELSEWHERE

CITY           SKY/WX    TMP DP  RH WIND       PRES   REMARKS
HARRISBURG PA  MOSUNNY   76  53  44 CALM      30.03F
BALTIMORE      MOSUNNY   80  48  32 NW3       30.04F
ANNAPOLIS      PTSUNNY   75  56  51 SE8       30.05F
ANDREWS AFB    PTSUNNY   78  52  40 SW5       30.06S
WILMINGTON DE  MOSUNNY   77  53  43 CALM      30.04F
PHILADELPHIA   MOSUNNY   79  51  37 SW9       30.03S
WILDWOOD NJ*   SUNNY     75  52  43 W9        30.06S
ATLANTIC CITY  PTSUNNY   78  50  37 VRB5      30.03S
HENDERSON NC   MOSUNNY   76  61  60 E5        30.08F
GREENSBORO     PTSUNNY   78  60  53 N5        30.07F
ROCKY MOUNT    MOSUNNY   82  62  50 CALM      30.06F
FAYETTEVILLE   CLOUDY    83  62  49 E8        30.03F
CHARLOTTE      MOSUNNY   79  57  46 CALM      30.06F
$$

VAZ100-302000-
MARINE

STATION/POSITION TIME  TEMP    WIND        PRES    WAVE   SWELL
                       AIR SEA DIR/SP/G            HT/PER HT/PER
                 (UTC) (F)     (DEG/KT/KT) (MB)    (FT/S) (FT/S)
44066 TX TWR #4  1900   71 76  330/  8/ 10 1016.9R   3/ 8   3/ 8
CAPE MAY NJ      1900   72 77  260/  5/  6 1017.3S
LEWES DE         1900   72 72   40/  7/  7 1017.3F
15NM E FENWICK I 1900   72 74              1018.1S   2/ 7
OCEAN-CITY-INLET 1900   73 71  150/  6/  9 1017.6R
WACHAPREAGUE VA  1900   80 79  280/  2/  7 1018.0S
THOMAS POINT MD  1900   73 78  170/  9/ 10 1018.2F
GOOSES REEF MD   1900   73     170/  2/  4 1018.5S
COVE POINT MD    1900   74     360/  6/  8 1017.7F
SOLOMONS ISLAND  1900      80                N/A
BISHOPS HEAD MD  1900   73 79  250/  6/  7 1017.6F
PINEY POINT MD   1900          350/  8/  9   N/A
POTOMAC MD       1900   75     310/  6/  8 1017.3F
CAMBRIDGE MD     1900   74 78  340/  7/ 10 1017.6F
LEWISETTA VA     1900   75 77   30/  5/  8 1017.8F
RAPPAHANNOCK LGT 1900          360/  4/  5 1018.7S
STINGRAY PT      1900   74     100/  6/  6 1018.8F
YORK RVR RNG VA  1900   74     130/  5/  6 1017.7F
YORKTOWN VA      1900   77 78   40/  3/  3 1017.9S
JAMESTOWN VA     1900   74     340/  6/  8   N/A
DOMINION TERM VA 1900   74     160/  3/  4 1018.4S
KIPTOPEKE VA     1900      80  320/  5/  6   N/A
CHES BAY BRIDGE  1900   74 77  340/  4/  6 1017.8S
CAPE HENRY VA    1900   74     340/  6/  8 1017.2R
WILLOUBY STN VA  1900          110/  3/  3 1017.6S
S CRANEY ISL VA  1900           40/  4/  5 1018.2F
CAPE HENRY BUOY  1900      79                N/A     2/ 8
1ST LANDING BUOY 1900   74     350/  6/  8 1018.0S
CAPE CHARLES BUO 1900      78                N/A     2/ 8
OFFSHORE WE BUOY 1900      78                N/A     2/ 8
64NM E OF VA BCH 1900   74 78  350/ 10/ 14 1017.8S   3/ 8   2/ 8
DUCK PIER NC     1900   74 76   30/  7/  8 1017.5F
44056 DUCK FRF   1900                        N/A     2/ 8
OREGON INLET NC  1900   76 77   30/  9/ 12 1018.0F
HATTERAS NC      1900   78 79   50/  8/ 12 1018.3S
DIAMOND SHLS NC  1900          VRB 14/ 16  1017.4R   3/ 7   2/ 7
CAPE LOOKOUT NC  1800   78      50/ 12/ 13 1017.5F
$$


USA.gov is the U.S. government's official web portal to all federal, state and local government web resources and services.